Regional Weather Roundup
Issued by NWS

Home | Current Version | Previous Version | Graphics & Text | Print | Product List | Glossary On
Versions: 1 2 3 4 5 6 7 8 9 10 11 12 13 14 15 16 17 18 19 20 21 22 23 24 25 26 27 28 29 30 31 32 33 34 35 36 37 38 39 40 41 42 43 44 45 46 47 48 49 50
000
ASUS43 KIND 300509
RWRIN

WEATHER ROUNDUP FOR INDIANA
NATIONAL WEATHER SERVICE INDIANAPOLIS IN
100 AM EDT TUE JUN 30 2015

NOTE: "FAIR" INDICATES FEW OR NO CLOUDS BELOW 12,000 FEET WITH NO
SIGNIFICANT WEATHER AND/OR OBSTRUCTIONS TO VISIBILITY.

* - STATION DOES NOT REPORT WEATHER SUCH AS PRECIPITATION OR FOG.

+ - STATION NOT QUALITY CONTROLLED BY THE NATIONAL WEATHER SERVICE.
    USE DATA WITH CAUTION...ESPECIALLY DEWPOINT AND RELATIVE
    HUMIDITY OBSERVATIONS.

INZ001>003-010>013-019-020-300600-
NORTHWEST INDIANA

CITY           SKY/WX    TMP DP  RH WIND       PRES   REMARKS
GARY /AIRPORT/ CLEAR     66  66 100 CALM      29.80F FOG
KNOX *+        CLEAR     61  61 100 CALM      29.80F
LA PORTE +     PTCLDY    64  64 100 CALM      29.82S
MICHIGAN CITY+ CLEAR     63  63 100 S3        29.81S
MONTICELLO +   CLOUDY    65  65 100 S3        29.81S
RENSSELAER +   CLOUDY    63  63 100 SW3       29.83R FOG
VALPARAISO     CLOUDY    64  61  90 S3        29.82S

$$

LMZ046-743>745-300600-
SOUTHERN LAKE MICHIGAN

STATION/POSITION TIME  TEMP    WIND        PRES    WAVE
                       AIR SEA DIR/SP/G            HT
                 (UTC) (F)     (DEG/KT/KT) (MB)    (FT)
BURNS HARBOR     0500   66     180/  6/ 10 1009.8S
MICHIGAN CITY    0500   64     130/  9/ 11   N/A
5NW MICH CITY    0500   65 65  180/ 10/ 12   N/A     1

$$

INZ004-005-014>016-021>024-300600-
NORTH CENTRAL INDIANA

CITY           SKY/WX    TMP DP  RH WIND       PRES   REMARKS
GOSHEN         CLEAR     58  56  93 SE3       29.82F FOG
LOGANSPORT +   MOCLDY    61  59  94 CALM      29.83S FOG
PERU/GRISSOM   CLEAR     63  61  95 SE3       29.82S
ROCHESTER +    PTCLDY    64  64 100 SE5       29.82F
SOUTH BEND     PTCLDY    62  59  90 SE5       29.83S
WARSAW +       FOG       57  57 100 CALM      29.83S VSB 1

$$

INZ006>009-017-018-025>027-300600-
NORTHEAST INDIANA

CITY           SKY/WX    TMP DP  RH WIND       PRES   REMARKS
ANGOLA *+      CLOUDY    63  52  67 CALM      29.83R
AUBURN +       MOCLDY    59  55  88 CALM      29.84S FOG
FORT WAYNE     PTCLDY    59  58  96 CALM      29.83F FOG
HUNTINGTON +   PTCLDY    59  58  97 CALM      29.83S FOG

$$

INZ028-029-035-036-043>045-051>053-300600-
WEST CENTRAL INDIANA

CITY           SKY/WX    TMP DP  RH WIND       PRES   REMARKS
CRAWFORDSVL +  CLOUDY    63  62  97 CALM      29.85R THUNDER
GREENCASTLE +  PTCLDY    64  61  88 CALM      29.85F FOG
LAFAYETTE      FOG       63  62  97 CALM      29.83R VSB 3/4
TERRE HAUTE    CLEAR     69  64  84 W6        29.84S

$$

INZ030>032-037>040-046>048-054>057-064-065-300600-
CENTRAL INDIANA

CITY           SKY/WX    TMP DP  RH WIND       PRES   REMARKS
CP ATTERBURY + MOCLDY    64  63  94 SW6       29.86R
FISHERS *+     PTCLDY    61  61 100 S3        29.84R
FRANKFORT +    FOG      N/A N/A N/A CALM      29.85S VSB<1/4
GREENWOOD *+   PTCLDY    66  63  88 SW3       29.85R
INDIANAPOLIS   MOCLDY    66  62  87 SW6       29.83R
-EAGLE CREEK   PTCLDY    66  63  90 CALM      29.83S
KOKOMO *+      CLEAR     63  61  94 CALM      29.82S
MARION +       PTCLDY    61  60  97 CALM      29.84S FOG
MT COMFORT *+  PTCLDY    63 N/A N/A CALM      29.84S
SHELBYVILLE    PTCLDY    68  65  90 SW7       29.83R
ZIONSVILLE +   MOCLDY    64  62  91 CALM      29.84S FOG

$$

INZ033-034-041-042-049-050-058-059-300600-
EAST CENTRAL INDIANA

CITY           SKY/WX    TMP DP  RH WIND       PRES   REMARKS
MUNCIE         CLOUDY    64  62  93 SE3       29.84S

$$

INZ060-061-067>069-081>083-085>088-300600-
SOUTHWEST INDIANA

CITY           SKY/WX    TMP DP  RH WIND       PRES   REMARKS
EVANSVILLE     CLEAR     70  64  81 CALM      29.87F
HUNTINGBURG *+ CLEAR     66  63  88 CALM      29.88S
WASHINGTON +   CLEAR     66  63  87 SW6       29.86S

$$

INZ062-063-066-070>080-084-089>092-300600-
SOUTH CENTRAL AND SOUTHEAST INDIANA

CITY           SKY/WX    TMP DP  RH WIND       PRES   REMARKS
BLOOMINGTON    CLEAR     66  64  93 W5        29.87R
MADISON *+     PTCLDY    68  63  83 CALM      29.87F
NORTH VERNON + PTCLDY    68  68 100 W3        29.86S
SEYMOUR +      CLEAR     68  64  88 W6        29.85S

$$




USA.gov is the U.S. government's official web portal to all federal, state and local government web resources and services.